Location: Hopville
(44.8032°N, 123.1329°W)
Time: 04:35:24
(UTC+00:00)

CZ-4B R/B - Pass Details

Date: 24 January 2021
Orbit: 486 x 652 km, 97.9° (Epoch: 26 February)

Event Time Altitude Azimuth Distance (km) Brightness Sun altitude
Rises 14:38:14 0° 357° (N) 2,574 6.0 -11.0°
Reaches altitude 10° 14:40:44 10° 339° (NNW) 1,698 5.0 -10.6°
Maximum altitude 14:43:18 18° 294° (WNW) 1,267 4.0 -10.1°
Drops below altitude 10° 14:45:53 10° 249° (WSW) 1,726 4.9 -9.7°
Sets 14:48:28 0° 231° (SW) 2,634 6.0 -9.2°
